Location: Poughquag
(41.6090°N, 73.6820°W)
Time: 14:38:03
(UTC-04:00)

Transit 2A - Pass Details

Date: 01 June 2020
Orbit: 592 x 967 km, 66.7° (Epoch: 05 July)

Event Time Altitude Azimuth Distance (km) Brightness Sun altitude
Rises 21:07:55 0° 337° (NNW) 3,521 10.7 -7.7°
Reaches altitude 10° 21:10:53 10° 351° (N) 2,626 9.6 -8.1°
Maximum altitude 21:15:53 25° 45° (NE) 1,831 7.9 -8.8°
Drops below altitude 10° 21:20:59 10° 98° (E) 2,702 8.3 -9.5°
Enters shadow 21:21:46 - 102° (ESE) 2,926 8.5 -9.7°
